Weather History for Krakow, Poland

Change the Weather History Date:

Friday, August 16, 2013

  Actual Average Record
Temperature  
Mean Temperature 60 °F -  
Max Temperature 75 °F 69 °F - ()
Min Temperature 45 °F 50 °F - ()
Degree Days  
Heating Degree Days 5    
Growing Degree Days 10 (Base 50)    
Moisture  
Dew Point 45 °F    
Average Humidity 59    
Maximum Humidity 93    
Minimum Humidity 17    
Precipitation  
Precipitation 0.00 in 0.09 in - ()
Sea Level Pressure  
Sea Level Pressure 30.21 in    
Wind  
Wind Speed 2 mph ()    
Max Wind Speed 9 mph    
Max Gust Speed -    
Visibility 11.3 miles    
Events      
T = Trace of Precipitation, MM = Missing Value Source: Averaged Metar Reports

Daily Weather History Graph

Daily Weather History Graph

Search for Another Location

Airport:

Trip Planner

Search our weather history database for the weather conditions in past years. The results will help you decide how hot, cold, wet, or windy it might be!

Date:

Astronomy

Aug. 16, 2013 Rise Set
Actual Time 5:31 AM CEST 7:57 PM CEST
Civil Twilight 4:55 AM CEST 8:33 PM CEST
Nautical Twilight 4:10 AM CEST 9:18 PM CEST
Astronomical Twilight 3:17 AM CEST 10:10 PM CEST
Moon 4:09 PM CEST (8/16) 12:06 AM CEST (8/16)
Length of Visible Light 15h 37m
Length of Day
14h 25m
Waxing Gibbous, 72% of the Moon is Illuminated
Aug 16
Waxing Gibbous
Aug 21
Full
Aug 28
Last Quarter
Sep 5
New
Sep 12
First Quarter

Hourly Weather History & Observations

Time (CEST) Temp. Dew Point Humidity Pressure Visibility Wind Dir Wind Speed Gust Speed Precip Events Conditions
12:00 AM 51.8 °F 48.2 °F 88% 30.24 in - Calm Calm - N/A   Clear
12:30 AM 51.8 °F 48.2 °F 88% 30.24 in - Calm Calm - N/A   Clear
1:00 AM 50.0 °F 46.4 °F 87% 30.27 in - Calm Calm - N/A   Clear
1:30 AM 48.2 °F 46.4 °F 93% 30.24 in - Calm Calm - N/A   Clear
2:00 AM 48 °F 46 °F 89% 30.28 in 19 mi NNE 2.2 mph - -   Scattered Clouds
2:00 AM 48.2 °F 46.4 °F 93% 30.24 in - Calm Calm - N/A   Clear
2:30 AM 48.2 °F 46.4 °F 93% 30.24 in - Calm Calm - N/A   Clear
3:00 AM 46.4 °F 44.6 °F 93% 30.24 in - Calm Calm - N/A   Clear
3:30 AM 46.4 °F 44.6 °F 93% 30.24 in - Calm Calm - N/A   Clear
4:00 AM 46.4 °F 44.6 °F 93% 30.24 in - Calm Calm - N/A   Clear
4:30 AM 46.4 °F 44.6 °F 93% 30.24 in - Calm Calm - N/A   Clear
5:00 AM 46 °F 45 °F 93% 30.27 in 19 mi Calm Calm - -  
5:00 AM 46.4 °F 44.6 °F 93% 30.24 in - Calm Calm - N/A   Clear
5:30 AM 46.4 °F 44.6 °F 93% 30.24 in - Calm Calm - N/A   Clear
6:00 AM 46.4 °F 44.6 °F 93% 30.24 in - Calm Calm - N/A   Clear
6:30 AM 46.4 °F 44.6 °F 93% 30.24 in - Calm Calm - N/A   Clear
7:00 AM 50.0 °F 46.4 °F 87% 30.24 in - Calm Calm - N/A   Clear
7:30 AM 51.8 °F 48.2 °F 88% 30.24 in - Calm Calm - N/A   Clear
8:00 AM 57 °F 49 °F 67% 30.27 in 19 mi Calm Calm - -   Scattered Clouds
8:00 AM 57.2 °F 50.0 °F 77% 30.24 in - Calm Calm - N/A   Clear
8:30 AM 60.8 °F 51.8 °F 72% 30.24 in - Calm Calm - N/A   Clear
9:00 AM 62.6 °F 50.0 °F 63% 30.24 in - Calm Calm - N/A   Clear
9:30 AM 64.4 °F 50.0 °F 59% 30.24 in - Variable 2.3 mph - N/A   Clear
10:00 AM 68.0 °F 46.4 °F 46% 30.24 in - Variable 2.3 mph - N/A   Clear
10:30 AM 69.8 °F 44.6 °F 40% 30.24 in - East 5.8 mph - N/A   Clear
11:00 AM 71 °F 42 °F 24% 30.23 in 25 mi East 6.7 mph - -   Scattered Clouds
11:00 AM 71.6 °F 42.8 °F 35% 30.24 in 6.2 mi East 5.8 mph - N/A   Partly Cloudy
11:30 AM 73.4 °F 37.4 °F 27% 30.24 in 6.2 mi ESE 6.9 mph - N/A   Partly Cloudy
12:00 PM 73.4 °F 39.2 °F 29% 30.24 in 6.2 mi ESE 5.8 mph - N/A   Partly Cloudy
12:30 PM 73.4 °F 37.4 °F 27% 30.21 in 6.2 mi East 6.9 mph - N/A   Partly Cloudy
1:00 PM 73.4 °F 39.2 °F 29% 30.21 in 6.2 mi East 6.9 mph - N/A   Partly Cloudy
1:30 PM 75.2 °F 41.0 °F 29% 30.21 in 6.2 mi East 6.9 mph - N/A   Partly Cloudy
2:00 PM 73 °F 38 °F 18% 30.19 in 31 mi ESE 6.7 mph - -   Scattered Clouds
2:00 PM 75.2 °F 39.2 °F 27% 30.18 in - East 8.1 mph - N/A   Clear
2:30 PM 75.2 °F 41.0 °F 29% 30.18 in - Variable 5.8 mph - N/A   Clear
3:00 PM 75.2 °F 41.0 °F 29% 30.18 in - East 8.1 mph - N/A   Clear
3:30 PM 75.2 °F 42.8 °F 31% 30.18 in - SE 8.1 mph - N/A   Clear
4:00 PM 75.2 °F 41.0 °F 29% 30.15 in - Variable 2.3 mph - N/A   Clear
4:30 PM 75.2 °F 41.0 °F 29% 30.15 in - Variable 2.3 mph - N/A   Clear
5:00 PM 75 °F 39 °F 17% 30.14 in 31 mi East 8.9 mph - -   Clear
5:00 PM 75.2 °F 42.8 °F 31% 30.15 in - NE 5.8 mph - N/A   Clear
5:30 PM 75.2 °F 41.0 °F 29% 30.15 in - East 6.9 mph - N/A   Clear
6:00 PM 73.4 °F 42.8 °F 33% 30.15 in - NE 9.2 mph - N/A   Clear
6:30 PM 73.4 °F 42.8 °F 33% 30.15 in - ENE 8.1 mph - N/A   Clear
7:00 PM 71.6 °F 44.6 °F 38% 30.15 in - ENE 5.8 mph - N/A   Clear
7:30 PM 69.8 °F 44.6 °F 40% 30.15 in - ENE 6.9 mph - N/A   Clear
8:00 PM 68.0 °F 44.6 °F 43% 30.15 in - ENE 4.6 mph - N/A   Clear
8:30 PM 64.4 °F 48.2 °F 56% 30.15 in - NE 3.5 mph - N/A   Clear
9:00 PM 62.6 °F 48.2 °F 59% 30.15 in - NE 4.6 mph - N/A   Clear
9:30 PM 62.6 °F 48.2 °F 59% 30.15 in - NE 4.6 mph - N/A   Clear
10:00 PM 59.0 °F 48.2 °F 67% 30.15 in - NE 6.9 mph - N/A   Clear
10:30 PM 57.2 °F 48.2 °F 72% 30.15 in - NNE 5.8 mph - N/A   Clear
11:00 PM 58 °F 47 °F 59% 30.17 in 19 mi NNE 6.7 mph - -   Clear
11:00 PM 57.2 °F 48.2 °F 72% 30.15 in - NNE 5.8 mph - N/A   Clear
11:30 PM 57.2 °F 48.2 °F 72% 30.15 in - NNE 4.6 mph - N/A   Clear